Showing default

LAPAN A3, 41603

Orbit data source: Space-Track

LAPAN A3, 41603 is a payload satellite owned by LAPAN (ID) in SSO that was launched on Wed, 22 Jun 2016 UTC via a PSLV-XL launch vehicle from the Sirharikota (SRI). Payload-class satellites include a variety of spacecraft equipped with specific instruments for various scientific and technological missions. These include communications satellites like Starlink; space stations such as the ISS; scientific satellites like the Hubble; Earth observation satellites from companies like Planet Labs, Umbra, and HawkEye 360; GPS; miniature CubeSats for education and research; and military/defense satellites.

Loading next visibility...
Identifier
41603, 2016-040E
Orbit
SSO
Last TLE update
1 hour ago
Origin
Manufacturer
LAPAN
Mission
Operational Civil Imaging
Bus & Motor
TUBSAT, Unknown motor
Mass
120 kg wet, 120 kg dry
Launch date (UTC)
2016-06-22 (9 years ago)
Launch vehicle
PSLV-XL
Launch site
Sirharikota (SRI)
Object type
Payload
Rocket body
Debris
Shape & HBR
Box, 0.5 m
Radar Cross Section
0.225 m², Medium (>0.1 m² and < 1m²)

Expand to show TLE details & history

TLE from 1 hour ago
0 LAPAN A3
1 41603U 16040E   25184.24256217  .00002462  00000-0  87163-4 0  9997
2 41603  97.1370 187.9232 0011047 175.1564 184.9786 15.29991872501403
Epoch: 2025-07-03T05:49Z
TLE epoch observation values (Epoch: 2025-07-03T05:49:17.371Z)
Latitude
-0.00004°
Longitude
179.08871°
Altitude
486.493 km
Speed
7.618 km/s
True Right ascension
12h 31m 41s
True Declination
0° 00' 00"
Sunlit
Object was in daylight at epoch
Visualization orbit readout
Latitude
-70.42253°
Longitude
-160.36529°
Altitude
505.127 km
Speed
7.609 km/s
Apparent Right ascension
08h 40m 37s
Apparent Declination
-65° 26' 52"
Sunlit
Object is in full shadow
Visualization observer readout
Local Sidereal Time
18:50:27
Azimuth
202.614° SW
Elevation
-60.024°
Doppler factor
1
Orbital elements
Apogee altitude
480.346 km
Perigee altitude
465.21 km
Semi-major axis
6,850.915 km
Eccentricity
0.0011
Inclination
97.137°
RAAN
187.9232°
Arg. of periapsis
175.1564°
True anomaly
Unknown
Mean anomaly
184.9786°
Eccentric anomaly
Unknown
Mean motion
3.82755 °/min
Orbital period
94.06 mins
BSTAR
0.000087163
Loading maneuver chart data...
Loading SW <> Apogee altitude chart data...
Loading historical data...
Loading historical data...
Loading historical data...
Loading historical data...
Loading historical data...
Loading historical data...
Loading historical data...

LAPAN A3 Visibility forecast

Observer location: undefined°, undefined°

Span
Click to sort rows by Start time (UTC) header in descending order
Start Az.
Max El. time (UTC)
Max El. Az.
Max El.
End time (UTC)
End Az.
6 mins2025-07-03 12:39:40.949Z30.547° NE2025-07-03 12:42:40.949Z93.821° ESE30.085°2025-07-03 12:45:40.949Z163.645° S
5 mins2025-07-04 00:47:40.949Z205.603° SW2025-07-04 00:49:40.949Z260.345° W30.256°2025-07-04 00:52:40.949Z328.116° NNW
|